Location: Unspecified
(0.0000°N, 0.0000°E)
Time: 14:05:16
(UTC+00:00)

Vanguard 1 - Pass Details

Date: 25 November 2019
Orbit: 652 x 3831 km, 34.3° (Epoch: 08 December)

Event Time Altitude Azimuth Distance (km) Brightness Sun altitude
Rises 19:18:32 0° 260° (W) 3,466 14.3 -21.3°
Reaches altitude 10° 19:21:39 10° 239° (WSW) 2,843 13.6 -22.0°
Maximum altitude 19:26:10 18° 198° (SSW) 2,804 12.8 -23.1°
Drops below altitude 10° 19:32:23 10° 159° (SSE) 4,110 13.2 -24.5°
Sets 19:38:30 0° 143° (SE) 5,820 13.9 -25.9°
